www.pogodaiklimat.ru

Погода и климат >> Архив погоды >> Аргентина >> La Plata


ПОГОДА в La Plata

  • Прогноз погоды в La Plata
  • Монитор погоды в La Plata
  • Климат города

АРХИВ ПОГОДЫ в La Plata

Время (UTC), дата Ветер
(напр.,м/с)
 
Видим.   Явления Облачность Т
(С)
Тd
(С)
f
(%)
Тe
(С)
Тes
(С)
Комфортность P
(гПа)
Po
(гПа)
Тmin
(С)
Tmax
(С)
R
(мм)
R24
(мм)
S
(см)
18 9.08 В 8 10 км {морось} 6/6 840 м
[Cu hum Cs]
+15.2 +11.5 79 +13 +14 1020.7 1018.0 0.0
21 9.08 В 7 10 км 4/0
[Ci fib]
+13.8 +11.8 88 +11 +11 1020.1 1017.3
00 10.08 В 7 10 км ясно +13.1 +11.6 91 +10 +10 1020.0 1017.2 +12.1 +16.4
03 10.08 В 7 10 км ясно +12.9 +10.8 87 +10 +10 1021.6 1018.8
06 10.08 В 5 10 км ясно +12.1 +10.8 92 +10 +10 1021.9 1019.2
09 10.08 В 6 10 км ясно +12.2 +10.9 92 +9 +9 1020.8 1018.0
12 10.08 В 9 10 км 9/8 240 м
[St Ac As Ci fib]
+13.5 +10.9 84 +11 +11 1021.0 1018.2 +11.8 +13.5 0.0
15 10.08 В 9 10 км 10/10 240 м
[Sc]
+14.7 +11.8 83 +12 +12 1020.1 1017.3
18 10.08 В 9 10 км 10/4 450 м
[Sc Ac As Cs]
+16.2 +11.6 74 +14 +15 1017.0 1014.2
21 10.08 В 5 10 км 10/6 540 м
[Sc Cs]
+15.8 +12.4 80 +15 +15 1016.8 1014.0
00 11.08 В 10 10 км зарница 10/5 240 м
[St As op]
+15.7 +12.7 82 +14 +14 1016.4 1013.6 +13.5 +16.9
03 11.08 В 12 10 км в посл. час дождь 8/0
[Ac As Cs]
+14.9 +13.3 90 +12 +12 1014.1 1011.3
06 11.08 В 7 5000 м гроза, ливневой дождь 10/5 1200 м
[Cb cap As op]
+14.9 +13.7 93 +13 +13 1014.6 1011.8 6
09 11.08 В 6 3000 м дождь {гроза} 10/8 300 м
[St As op]
+14.3 +14.1 99 +12 +12 1014.0 1011.2
12 11.08 В 10 10 км в посл. час дождь {гроза} 10/8 150 м
[St As op]
+14.4 +13.5 94 +12 +12 1010.4 1007.7 +14.2 +15.7 17
15 11.08 В 9 10 км {морось} 10/10 210 м
[St]
+15.2 +14.3 94 +13 +13 1008.3 1005.6
18 11.08 В 4 8000 м слабый дождь {морось} 10/5 300 м
[St As op]
+15.9 +15.0 94 +15 +16 1006.2 1003.4 0.2
21 11.08 В 4 7000 м слабая морось {дождь} 10/10 360 м
[St]
+16.1 +15.4 96 +15 +15 1005.9 1003.2
00 12.08 В 2 10 км в посл. час дождь {морось} туман 10/10 120 м
[St]
+15.8 +15.6 99 +16 +16 1007.6 1004.9 +14.4 +16.4 1
03 12.08 СЗ 2 3000 м дождь {морось} 10/9 90 м
[St As op]
+15.8 +15.8 100 +16 +16 1008.9 1006.2
06 12.08 СВ 2 3000 м слабая морось {дождь} туман 10/10 90 м
[St]
+16.2 +16.0 99 +16 +16 1007.9 1005.2 4
09 12.08 штиль 0 1500 м слабая морось туман 10/10 60 м
[St]
+15.6 +15.6 100 +15 +15 1007.7 1005.0
12 12.08 Ю 3 2000 м слабая морось 10/10 90 м
[St]
+15.0 +15.0 100 +14 +14 1008.8 1006.1 +14.9 +16.4 4
15 12.08 Ю 5 2500 м слабая морось 10/10 180 м
[St]
+14.3 +14.3 100 +13 +13 1009.4 1006.6
18 12.08 ЮЗ 6 6000 м слабая морось 10/10 240 м
[St]
+12.2 +12.2 100 +9 +9 1008.4 1005.6 14
21 12.08 Ю 8 10 км {морось} 10/8 270 м
[Sc Ac As]
+12.8 +11.1 89 +10 +10 1009.8 1007.0
00 13.08 ЮЗ 3 10 км {морось} 9/0
[Ac As Cs]
+11.9 +10.2 89 +10 +10 1013.0 1010.2 +11.9 +15.0 0.0
03 13.08 З 2 10 км 3/0
[Ac As Ci fib]
+9.7 +9.3 97 +8 +8 1015.3 1012.5
06 13.08 З 2 10 км 1/0
[Ci fib]
+7.6 +7.6 100 +5 +5 1016.4 1013.6
09 13.08 штиль 0 100 м туман 1/0
[Ci fib]
+6.0 +6.0 100 +5 +5 1016.1 1013.3
12 13.08 З 1 10 км {туман} 4/0
[Cs]
+8.0 +8.0 100 +7 +9 1017.1 1014.4 +4.8 +11.9 14
15 13.08 ЮЗ 2 10 км 6/0
[Cs]
+12.4 +7.3 71 +12 +19 1014.8 1012.0
18 13.08 З 3 10 км 6/0
[Cs]
+15.3 +3.9 46 +15 +20 1012.8 1010.0
21 13.08 С 2 10 км 6/0
[Cs]
+12.7 +6.0 64 +12 +12 1013.0 1010.2
00 14.08 С 2 10 км 3/0
[Ci fib]
+9.5 +7.2 86 +8 +8 1012.7 1009.8 +8.0 +15.7
03 14.08 С 2 10 км 6/1 300 м
[St Ac As]
+10.2 +8.8 91 +9 +9 1013.3 1010.5
06 14.08 СЗ 3 10 км 5/0
[Ac und]
+11.2 +9.2 87 +9 +9 1012.6 1009.8
09 14.08 СЗ 3 10 км 3/0
[Ci fib]
+11.0 +9.4 90 +9 +9 1012.7 1009.8
12 14.08 СЗ 4 10 км ясно +11.8 +5.4 65 +10 +11 1014.3 1011.4 +7.2 +12.5
15 14.08 З 5 10 км ясно +16.0 +4.1 45 +15 +21 1015.6 1012.8
18 14.08 З 5 10 км 1/0
[Ci sp]
+17.7 +3.8 40 +17 +21 1014.7 1012.0
21 14.08 З 2 10 км 5/0
[Ci sp]
+15.6 +3.2 43 +16 +16 1016.0 1013.2
00 15.08 штиль 0 10 км 8/0
[Ac As Cs]
+11.2 +5.6 68 +11 +11 1018.2 1015.4 +11.2 +18.1
03 15.08 СВ 1 10 км 6/0
[Ac As Cs]
+9.2 +5.5 78 +9 +9 1018.0 1015.2
06 15.08 СЗ 1 10 км 4/0
[Ac As Cs]
+8.9 +7.6 92 +8 +8 1018.3 1015.6
09 15.08 С 1 10 км ясно +6.8 +6.6 99 +6 +6 1018.0 1015.2
12 15.08 С 4 10 км 1/0
[Ci fib]
+12.9 +8.3 74 +11 +12 1019.1 1016.4 +6.3 +12.9
15 15.08 С 6 10 км 3/0
[Ci fib]
+16.6 +9.8 64 +16 +19 1018.5 1015.7
18 15.08 С 7 10 км 5/0
[Ac cast Cc]
+18.5 +9.5 56 +18 +20 1015.5 1012.8
21 15.08 С 4 10 км 6/3 900 м
[Cb calv Ac cast]
+17.8 +7.9 52 +18 +18 1015.9 1013.0
00 16.08 Ю 5 10 км 6/3 750 м
[Sc Cs]
+11.6 +8.8 83 +9 +9 1019.4 1016.6 +11.6 +19.4
03 16.08 ЮЗ 2 10 км 4/0
[Ac trans]
+9.5 +8.3 92 +8 +8 1021.7 1018.9
06 16.08 З 1 10 км ясно +6.9 +6.5 97 +6 +6 1022.2 1019.4
09 16.08 ЮЗ 3 10 км ясно +7.0 +6.3 95 +4 +4 1023.1 1020.4
12 16.08 Ю 2 10 км ясно +8.2 +6.7 90 +7 +9 1024.9 1022.1 +5.4 +12.0
15 16.08 штиль 0 10 км ясно +13.6 +4.3 53 +13 +26 опасность
простуды
1024.6 1021.8

 

Местоположение метеостанции La Plata (Аргентина): широта -34.96 долгота -57.90 высота над уровнем моря 19 м.

В архиве по умолчанию представлена погода в La Plata за последнюю неделю. Архивные данные за месяц целиком и за предыдущие месяцы, начиная с января 2011 года, Вы можете получить, выбрав интересующий диапазон дат из раскрывающегося списка и нажав кнопку "Ввод!".

Внимание! Время в таблицах - всемирное. Для получения местного времени необходимо прибавить поправку, которая в La Plata равна -3 ч.

Смотрите также архив погоды в соседних городах и на ближайших метеорологических станциях:

Погода в Colonia (Уругвай) (57 км)
Погода в Ezeiza (Аргентина) (60 км)
Погода в Buenos Aires Aeropuerto (Аргентина) (64 км)
Погода в Buenos Aires (Аргентина) (68 км)
Погода в Melilla (Уругвай) (152 км)
Погода в Dolores (Аргентина) (152 км)
Погода в Prado (Уругвай) (156 км)
Погода в Las Flores (Аргентина) (164 км)
Погода в Carrasco (Уругвай) (174 км)
Погода в Florida (Уругвай) (183 км)

Пояснения к столбцам:

Ветер - указаны скорость ветра в м/с - средняя за 10 мин, порывы в срок и между сроками (в фигурных скобках) и направление, откуда дует ветер: С - северный, СВ - северо-восточный, В - восточный, ЮВ - юго-восточный, Ю - южный, ЮЗ - юго-западный, З - западный, СЗ - северо-западный.
Видимость - горизонтальная дальность видимости в метрах или километрах. При видимости от 1 до 10 км при отсутствии осадков обычно наблюдается дымка, при ухудшении видимости до 1 км и менее - туман. В сухую погоду видимость может ухудшаться дымом, пылью или мглою.
Явления - указаны атмосферные явления, наблюдавшиеся в срок или в последний час перед сроком; фигурными скобками обозначены явления, наблюдавшиеся между сроками (за 1-3 часа до срока); квадратными скобками обозначены град или гололедные отложения с указанием их диаметра в мм.
Облачность - указаны через наклонную черту общая и нижняя облачность в баллах и высота нижней границы облаков в метрах; квадратными скобками обозначены формы облаков: Ci - перистые, Cs - перисто-слоистые, Cc - перисто-кучевые, Ac - высококучевые, As - высокослоистые, Sc - слоисто-кучевые, Ns - слоисто-дождевые, Cu - кучевые, Cb - кучево-дождевые. Подробнее классификацию облаков см. в Атласе облаков (PDF).
T - Температура воздуха - температура, измеренная на высоте 2 м над землей.
Td - Температура точки росы - температура, при понижении до которой содержащийся в воздухе водяной пар достигнет насыщения.
f - Относительная влажность воздуха - влажноcть воздуха, измеренная на высоте 2 м над землей.
Te - Эффективная температура - температура, которую ощущает одетый по сезону человек в тени. Характеристика душности погоды. При расчете учитывается влияние влажности воздуха и скорости ветра на теплоощущения человека.
Tes - Эффективная температура на солнце - температура, которую ощущает человек, с поправкой на солнечный нагрев. Характеристика знойности погоды. Зависит от высоты солнца над горизонтом, облачности и скорости ветра. Ночью, в пасмурную погоду, а также при ветре 12 м/с и более поправка равна нулю.
P - Атмосферное давление - приведенное к уровню моря атмосферное давление.
Po - Атмосферное давление - измеренное на уровне метеостанции атмосферное давление.
Tmin - Минимальная температура - минимум температуры воздуха на высоте 2 м над землей.
Tmax - Максимальная температура - максимум температуры воздуха на высоте 2 м над землей.
R - Количество осадков - Количество выпавших осадков за период времени, мм. При наведении курсора мыши на число - период времени, за который выпало указанное количество осадков.
R24 - Количество осадков - Количество выпавших осадков за 24 часа, мм.
S - Снежный покров - Высота снежного покрова, см. При наведении курсора мыши на число - состояние снежного покрова и степень покрытия местности в баллах.